FW8343 Weather Reports


time (UTC)temp
F
wind
direction
speed
knots
gust
knots
rain 1hr
in
rain 24hr
in
rain mn
in
humidity
%
barometer
mb
20260504042013 55 224 2.6 5.2 0.00 0.00 0.00 50 1001.1
20260504041536 55 223 1.7 6.1 0.00 0.00 0.00 48 1001.2
20260504041009 55 219 2.6 6.1 0.00 0.00 0.00 50 1001.3
20260504040512 55 222 1.7 5.2 0.00 0.00 0.00 48 1001.4
20260504040032 56 213 1.7 6.1 0.00 0.00 0.00 48 1001.4
20260504035511 56 223 1.7 6.1 0.00 0.00 0.00 49 1001.6
20260504035014 55 202 1.7 7.0 0.00 0.00 0.00 50 1001.6
20260504034534 55 198 2.6 7.0 0.00 0.00 0.00 52 1001.7
20260504034013 55 196 1.7 5.2 0.00 0.00 0.00 52 1001.8
20260504033513 54 200 1.7 5.2 0.00 0.00 0.00 52 1002.0
20260504033034 54 269 0.9 3.5 0.00 0.00 0.00 56 1002.1
20260504032510 53 269 0.9 3.5 0.00 0.00 0.00 54 1002.2
20260504032015 53 269 0.9 2.6 0.00 0.00 0.00 54 1002.2
20260504031530 53 269 1.7 3.5 0.00 0.00 0.00 52 1002.4
20260504031018 52 269 0.9 3.5 0.00 0.00 0.00 52 1002.5
20260504030514 52 269 1.7 2.6 0.00 0.00 0.00 55 1002.6
20260504030034 52 269 0.9 2.6 0.00 0.00 0.00 60 1002.7
20260504025514 52 269 0.9 1.7 0.00 0.00 0.00 58 1002.8
20260504025011 52 0 0.0 1.7 0.00 0.00 0.00 55 1002.8
20260504024535 52 269 0.0 1.7 0.00 0.00 0.00 57 1002.8
20260504024011 52 0 0.0 0.9 0.00 0.00 0.00 53 1002.8
20260504023511 52 0 0.0 1.7 0.00 0.00 0.00 51 1003.0
20260504023030 53 0 0.0 1.7 0.00 0.00 0.00 50 1003.0
20260504022511 53 269 0.0 1.7 0.00 0.00 0.00 56 1003.0
20260504022013 53 0 0.0 0.0 0.00 0.00 0.00 54 1003.0
20260504021533 54 0 0.0 0.0 0.00 0.00 0.00 65 1003.1
20260504021011 54 0 0.0 0.0 0.00 0.00 0.00 47 1003.1
20260504020511 54 0 0.0 0.0 0.00 0.00 0.00 45 1003.1
20260504020031 55 0 0.0 0.0 0.00 0.00 0.00 43 1003.2
20260504015512 55 0 0.0 0.0 0.00 0.00 0.00 43 1003.2
20260504015012 56 0 0.0 0.0 0.00 0.00 0.00 45 1003.1
20260504014538 56 0 0.0 0.0 0.00 0.00 0.00 48 1003.2
20260504014009 57 0 0.0 0.0 0.00 0.00 0.00 44 1003.1
20260504013511 57 0 0.0 0.0 0.00 0.00 0.00 47 1003.1
20260504013033 58 0 0.0 0.0 0.00 0.00 0.00 41 1003.3
20260504012509 58 0 0.0 0.0 0.00 0.00 0.00 37 1003.2
20260504012010 59 0 0.0 0.9 0.00 0.00 0.00 36 1003.3
20260504011530 59 0 0.0 0.9 0.00 0.00 0.00 37 1003.3
20260504011012 59 0 0.0 1.7 0.00 0.00 0.00 38 1003.4
20260504010510 60 0 0.0 2.6 0.00 0.00 0.00 36 1003.3
20260504010030 60 269 0.0 2.6 0.00 0.00 0.00 35 1003.5
20260504005511 60 269 0.9 2.6 0.00 0.00 0.00 35 1003.3
20260504005018 61 269 0.9 2.6 0.00 0.00 0.00 35 1003.4
20260504004530 61 269 0.9 2.6 0.00 0.00 0.00 35 1003.4
20260504004014 61 269 0.9 3.5 0.00 0.00 0.00 34 1003.4
20260504003517 62 269 1.7 3.5 0.00 0.00 0.00 34 1003.4
20260504003035 62 284 1.7 3.5 0.00 0.00 0.00 33 1003.3
20260504002511 62 259 0.9 3.5 0.00 0.00 0.00 32 1003.3
20260504002016 62 268 0.9 5.2 0.00 0.00 0.00 33 1003.3
20260504001537 62 268 1.7 7.0 0.00 0.00 0.00 32 1003.3
20260504001010 63 275 2.6 7.0 0.00 0.00 0.00 32 1003.4
20260504000511 63 288 2.6 7.0 0.00 0.00 0.00 32 1003.4
20260504000032 63 267 0.9 7.8 0.00 0.00 0.00 34 1003.5
20260503235512 63 256 3.5 8.7 0.00 0.00 0.00 31 1003.5
20260503235011 63 222 4.3 8.7 0.00 0.00 0.00 30 1003.4
20260503234532 63 216 2.6 9.6 0.00 0.00 0.00 30 1003.5
20260503234012 64 261 4.3 9.6 0.00 0.00 0.00 31 1003.6
20260503233511 64 266 2.6 7.8 0.00 0.00 0.00 33 1003.5
20260503233030 64 271 2.6 10.4 0.00 0.00 0.00 32 1003.6
20260503232514 65 294 4.3 10.4 0.00 0.00 0.00 31 1003.5
20260503232014 64 217 1.7 7.8 0.00 0.00 0.00 31 1003.6
20260503231530 64 300 3.5 7.0 0.00 0.00 0.00 29 1003.6
20260503231013 65 261 2.6 7.8 0.00 0.00 0.00 31 1003.7
20260503230511 65 273 2.6 9.6 0.00 0.00 0.00 29 1003.7
20260503230034 65 273 5.2 9.6 0.00 0.00 0.00 28 1003.7
20260503225513 65 0 1.7 7.8 0.00 0.00 0.00 29 1003.6
20260503225014 65 318 1.7 7.8 0.00 0.00 0.00 30 1003.7
20260503224533 65 300 1.7 7.8 0.00 0.00 0.00 29 1003.6
20260503224012 65 277 0.9 6.1 0.00 0.00 0.00 28 1003.7
20260503223514 65 284 2.6 8.7 0.00 0.00 0.00 28 1003.7
20260503223033 65 324 2.6 10.4 0.00 0.00 0.00 27 1003.7
20260503222509 65 254 4.3 10.4 0.00 0.00 0.00 26 1003.7
20260503222015 65 268 4.3 10.4 0.00 0.00 0.00 26 1003.7
20260503221533 65 261 2.6 8.7 0.00 0.00 0.00 27 1003.6
20260503221009 65 281 2.6 7.8 0.00 0.00 0.00 31 1003.7
20260503220512 65 324 1.7 7.8 0.00 0.00 0.00 28 1003.7
20260503220032 65 286 2.6 7.0 0.00 0.00 0.00 27 1003.8
20260503215511 65 327 1.7 7.8 0.00 0.00 0.00 27 1003.7
20260503215012 65 0 1.7 8.7 0.00 0.00 0.00 26 1003.7
20260503214531 65 290 3.5 8.7 0.00 0.00 0.00 25 1003.7
20260503214012 65 265 5.2 8.7 0.00 0.00 0.00 25 1003.7
20260503213513 65 262 4.3 9.6 0.00 0.00 0.00 25 1003.8
20260503213033 65 330 3.5 9.6 0.00 0.00 0.00 27 1003.9
20260503212512 66 288 3.5 10.4 0.00 0.00 0.00 27 1003.7
20260503212013 66 216 5.2 10.4 0.00 0.00 0.00 24 1003.6
20260503211532 67 289 3.5 9.6 0.00 0.00 0.00 26 1003.8
20260503211010 66 315 1.7 8.7 0.00 0.00 0.00 27 1003.8
20260503210510 67 317 2.6 8.7 0.00 0.00 0.00 27 1003.7
20260503210033 67 272 2.6 9.6 0.00 0.00 0.00 25 1003.7
20260503205510 66 250 1.7 9.6 0.00 0.00 0.00 31 1003.6
20260503205012 66 313 2.6 10.4 0.00 0.00 0.00 27 1003.7
20260503204529 66 297 3.5 10.4 0.00 0.00 0.00 27 1003.7
20260503204017 66 280 1.7 9.6 0.00 0.00 0.00 27 1003.8
20260503203513 67 243 3.5 9.6 0.00 0.00 0.00 28 1003.8
20260503203032 66 254 3.5 10.4 0.00 0.00 0.00 26 1003.7
20260503202509 66 258 4.3 10.4 0.00 0.00 0.00 28 1003.9
20260503202011 66 305 3.5 10.4 0.00 0.00 0.00 31 1003.9
20260503201528 67 278 2.6 9.6 0.00 0.00 0.00 30 1003.9
20260503201011 67 263 1.7 9.6 0.00 0.00 0.00 32 1004.0
20260503200514 67 296 3.5 9.6 0.00 0.00 0.00 29 1004.0
20260503200028 67 265 3.5 7.8 0.00 0.00 0.00 33 1003.8
20260503195509 67 240 1.7 8.7 0.00 0.00 0.00 32 1003.9
20260503195014 68 238 4.3 8.7 0.00 0.00 0.00 32 1004.0
20260503194533 68 233 1.7 10.4 0.00 0.00 0.00 33 1004.0
20260503194009 68 267 1.7 10.4 0.00 0.00 0.00 33 1004.0
20260503193511 67 296 2.6 12.2 0.00 0.00 0.00 35 1004.0
20260503193029 68 295 2.6 12.2 0.00 0.00 0.00 32 1004.1
20260503192509 68 280 3.5 12.2 0.00 0.00 0.00 32 1004.2
20260503192010 67 245 1.7 12.2 0.00 0.00 0.00 34 1004.1
20260503191536 68 220 5.2 12.2 0.00 0.00 0.00 30 1004.1
20260503191007 68 265 3.5 12.2 0.00 0.00 0.00 34 1004.2
20260503190511 68 288 3.5 12.2 0.00 0.00 0.00 33 1004.2
20260503190028 67 281 3.5 9.6 0.00 0.00 0.00 36 1004.3
20260503185510 67 305 0.9 8.7 0.00 0.00 0.00 36 1004.3
20260503185011 68 263 3.5 8.7 0.00 0.00 0.00 36 1004.4
20260503184530 68 294 3.5 8.7 0.00 0.00 0.00 38 1004.4
20260503184010 67 262 3.5 8.7 0.00 0.00 0.00 36 1004.3
20260503183514 67 313 1.7 11.3 0.00 0.00 0.00 37 1004.4
20260503183029 67 236 1.7 12.2 0.00 0.00 0.00 41 1004.5
20260503182507 67 268 4.3 12.2 0.00 0.00 0.00 37 1004.3
20260503182013 67 265 2.6 12.2 0.00 0.00 0.00 39 1004.4
20260503181529 67 300 1.7 10.4 0.00 0.00 0.00 42 1004.6
20260503181012 67 270 3.5 10.4 0.00 0.00 0.00 38 1004.6
20260503180515 66 274 1.7 9.6 0.00 0.00 0.00 41 1004.6
20260503180043 67 279 4.3 9.6 0.00 0.00 0.00 40 1004.8
20260503175510 67 274 1.7 9.6 0.00 0.00 0.00 43 1004.8
20260503175013 66 275 3.5 9.6 0.00 0.00 0.00 41 1004.9
20260503174532 66 299 2.6 9.6 0.00 0.00 0.00 40 1004.8
20260503174010 65 288 1.7 11.3 0.00 0.00 0.00 42 1005.0
20260503173512 65 321 1.7 11.3 0.00 0.00 0.00 42 1005.1
20260503173030 65 290 2.6 7.8 0.00 0.00 0.00 44 1004.9
20260503172512 65 272 3.5 7.8 0.00 0.00 0.00 43 1005.1
20260503172011 64 276 1.7 7.0 0.00 0.00 0.00 44 1005.1
20260503171530 65 296 2.6 8.7 0.00 0.00 0.00 45 1005.1
20260503171012 64 300 2.6 9.6 0.00 0.00 0.00 47 1005.1
20260503170512 65 303 1.7 9.6 0.00 0.00 0.00 44 1005.1
20260503151009 62 258 1.7 7.0 0.00 0.00 0.00 52 1005.2
20260503150511 61 250 1.7 5.2 0.00 0.00 0.00 52 1005.1
20260503131009 52 215 0.0 2.6 0.00 0.00 0.00 71 1005.5
20260503130511 51 215 0.9 2.6 0.00 0.00 0.00 73 1005.6
20260503110510 47 0 0.0 0.0 0.00 0.00 0.00 78 1005.2
20260503090512 51 164 0.9 4.3 0.00 0.00 0.00 75 1006.1
20260503081532 52 0 0.0 3.5 0.00 0.00 0.00 75 1006.9
20260503081009 52 190 0.9 4.3 0.00 0.00 0.00 73 1006.9
20260503080512 52 190 0.9 7.0 0.00 0.00 0.00 73 1007.0
20260503072510 52 215 0.0 3.5 0.00 0.00 0.00 75 1007.8
20260503072015 52 0 0.9 3.5 0.00 0.00 0.00 74 1007.8
20260503071532 52 215 1.7 4.3 0.00 0.00 0.00 74 1007.9
20260503071011 52 215 2.6 4.3 0.00 0.00 0.00 74 1007.9
20260503070512 52 215 2.6 4.3 0.00 0.00 0.00 73 1008.0
20260503060104 53 0 0.0 3.5 0.00 0.00 0.00 65 1008.8
20260503055013 53 265 1.7 3.5 0.00 0.00 0.00 63 1008.9
20260503054536 53 265 0.9 6.1 0.00 0.00 0.00 63 1008.9
20260503054010 53 265 1.7 6.1 0.00 0.00 0.00 63 1009.1
20260503053513 53 273 1.7 6.1 0.00 0.00 0.00 63 1009.0
20260503053032 54 0 0.9 2.6 0.00 0.00 0.00 64 1009.0
20260503052509 54 260 0.9 2.6 0.00 0.00 0.00 64 1009.0
20260503052013 54 260 0.0 3.5 0.00 0.00 0.00 63 1008.9
20260503051529 54 260 0.9 5.2 0.00 0.00 0.00 62 1009.0
20260503051009 54 242 1.7 5.2 0.00 0.00 0.00 62 1008.9
20260503050511 54 236 1.7 5.2 0.00 0.00 0.00 61 1009.0
20260503050033 55 254 0.9 4.3 0.00 0.00 0.00 61 1008.9
20260503045510 55 238 1.7 6.1 0.00 0.00 0.00 61 1008.9
20260503045011 55 0 0.9 6.1 0.00 0.00 0.00 60 1008.9
20260503044529 55 233 1.7 7.8 0.00 0.00 0.00 60 1009.0
20260503044011 55 279 1.7 7.8 0.00 0.00 0.00 60 1008.9
20260503043510 55 225 3.5 10.4 0.00 0.00 0.00 59 1008.9
20260503043040 55 0 3.5 10.4 0.00 0.00 0.00 59 1008.9
20260503042513 55 211 4.3 10.4 0.00 0.00 0.00 57 1009.0